Weather in Kamyshevka

Russia / Kurgan Oblast     56°21′10″N   64°47′43″E
temp.,
°C
wind,
m/s
gust,
m/s
humid.,
%
clouds,
%
prec.,
mm/h
press.,
hPa
HPBL,
m
18 may, wed
wed1823:00+10sw34845 1.8 100360
02:00+8sw33865 0.0 100440
05:00+8s228680 0.0 100430
08:00+13ssw4776100 0.0 1004361
11:00+16ssw5760100 0.0 10041104
14:00+17sw5656100 0.9 10041580
17:00+16sw475560 1.4 1003415
20:00+14se336099 0.0 100243
19 may, thu
thu1923:00+12sse336587 0.0 100052
02:00+9s3694100 1.3 1000299
05:00+9ssw4890100 2.1 999416
08:00+9sw61090100 1.0 999988
11:00+11wsw71181100 3.8 10001188
14:00+12wsw7117499 1.2 10011302
17:00+14w812655 1.8 10021710
20:00+9w8127924 0.3 1005814
20 may, fri
fri2023:00+6wsw512805 0.3 1007447
02:00+5sw4108797 0.0 1006233
05:00+6sw4128275 0.0 1006530
08:00+9w710697 0.0 10071071
11:00+12w6855100 0.0 10081517
14:00+13wsw6947100 0.0 10081745
17:00+13wsw5650100 0.0 10071483
20:00+10w1267100 0.0 100625
21 may, sat
sat2123:00+9se2371100 0.1 100359
02:00+7ne5992100 6.9 999775
05:00+6ne81493100 10.7 996783
08:00+6ne61094100 0.4 994522
11:00+8ne5696100 0.4 993331
14:00+11sw3685100 0.2 992704
17:00+7w4593100 0.5 994529
20:00+5w5793100 0.1 994687
22 may, sun
sun2223:00+5w5894100 0.2 994865
02:00+5wsw5991100 0.2 995770
05:00+5wsw599039 0.3 996554
08:00+5sw5889100 0.1 998823
11:00+8sw8117299 0.8 9991437
14:00+11sw8124985 0.5 9992219
17:00+10ssw7106798 1.1 10001491
20:00+8ssw4972100 0.6 999352